DW8816 Weather Reports


time (UTC)temp
C
wind
direction
speed
KPH
gust
KPH
rain 1hr
cm
rain 24hr
cm
rain mn
cm
humidity
%
barometer
mb
20260504082003 11 36 4.8 12.9 0.00 0.00 0.00 94 1013.4
20260504081004 11 21 6.4 11.3 0.00 0.00 0.00 94 1013.3
20260504050003 11 5 3.2 9.7 0.00 0.00 0.00 94 1011.4
20260504045003 11 12 4.8 12.9 0.00 0.00 0.00 93 1011.3
20260504044004 11 25 3.2 8.0 0.00 0.00 0.00 94 1011.4
20260504043003 12 37 3.2 9.7 0.00 0.00 0.00 93 1011.2
20260504042003 12 37 3.2 9.7 0.00 0.00 0.00 93 1011.2
20260504041004 12 24 3.2 9.7 0.00 0.00 0.00 93 1011.2
20260504040005 12 19 3.2 9.7 0.00 0.00 0.00 93 1011.1
20260504035005 12 32 1.6 9.7 0.00 0.00 0.00 93 1011.2
20260504033003 12 29 1.6 8.0 0.00 0.00 0.00 93 1011.1
20260504032003 12 53 3.2 8.0 0.00 0.00 0.00 94 1011.2
20260504031004 12 57 1.6 8.0 0.00 0.00 0.00 94 1011.2
20260504030003 12 38 3.2 9.7 0.00 0.00 0.00 94 1011.1
20260504024004 12 64 1.6 9.7 0.00 0.00 0.00 93 1011.0
20260504023003 12 13 3.2 9.7 0.00 0.00 0.00 93 1010.9
20260504022003 12 30 4.8 11.3 0.00 0.00 0.00 93 1010.7
20260504021004 12 26 4.8 11.3 0.00 0.00 0.00 93 1010.8
20260504020004 12 31 4.8 16.1 0.00 0.00 0.00 93 1010.7
20260504015004 12 25 3.2 14.5 0.00 0.00 0.00 93 1010.7
20260504014003 12 16 4.8 11.3 0.00 0.00 0.00 93 1010.7
20260504013003 12 37 4.8 14.5 0.00 0.00 0.00 92 1010.8
20260504012003 12 16 3.2 12.9 0.00 0.00 0.00 92 1010.8
20260504011003 12 7 4.8 12.9 0.00 0.00 0.00 92 1010.8
20260504010003 12 6 4.8 12.9 0.00 0.00 0.00 92 1010.8
20260504005004 12 27 3.2 14.5 0.00 0.00 0.00 91 1010.8
20260504004003 13 23 3.2 11.3 0.00 0.00 0.00 91 1010.7
20260504003003 13 21 3.2 9.7 0.00 0.00 0.00 90 1010.8
20260504002003 13 14 3.2 8.0 0.00 0.00 0.00 89 1010.7
20260504001005 13 11 3.2 8.0 0.00 0.00 0.00 89 1010.6
20260504000003 13 354 3.2 9.7 0.00 0.00 0.00 89 1010.5
20260503234003 13 312 3.2 6.4 0.00 0.00 0.00 89 1010.6
20260503233004 13 304 1.6 6.4 0.00 0.00 0.00 88 1010.5
20260503232003 13 291 1.6 4.8 0.00 0.00 0.00 88 1010.4
20260503231004 13 291 1.6 4.8 0.00 0.00 0.00 88 1010.3
20260503230004 13 290 1.6 6.4 0.00 0.00 0.00 87 1010.2
20260503225003 14 270 0.0 4.8 0.00 0.00 0.00 86 1010.2
20260503224003 14 270 1.6 4.8 0.00 0.00 0.00 86 1010.1
20260503223003 14 281 1.6 9.7 0.00 0.00 0.00 85 1010.0
20260503222003 15 297 0.0 6.4 0.00 0.00 0.00 85 1010.0
20260503221004 15 297 0.0 4.8 0.00 0.00 0.00 84 1010.0
20260503220004 15 297 0.0 4.8 0.00 0.00 0.00 84 1010.0
20260503215003 15 300 0.0 4.8 0.00 0.00 0.00 83 1009.9
20260503213003 15 0 0.0 3.2 0.00 0.00 0.00 81 1009.7
20260503212003 15 0 0.0 1.6 0.00 0.00 0.00 81 1009.7
20260503211003 15 0 0.0 0.0 0.00 0.00 0.00 81 1009.6
20260503210003 15 0 0.0 0.0 0.00 0.00 0.00 80 1009.5
20260503205004 15 0 0.0 3.2 0.00 0.00 0.00 79 1009.4
20260503204005 15 0 0.0 4.8 0.00 0.00 0.00 78 1009.3
20260503201004 16 0 0.0 0.0 0.00 0.00 0.00 76 1009.0
20260503200004 16 0 0.0 0.0 0.00 0.03 0.00 75 1008.9
20260503195004 16 0 0.0 0.0 0.00 0.03 0.00 75 1008.8
20260503192003 16 0 0.0 1.6 0.00 0.03 0.00 73 1008.5
20260503191003 16 0 0.0 0.0 0.00 0.03 0.00 73 1008.4
20260503190003 16 0 0.0 0.0 0.00 0.03 0.00 73 1008.4
20260503185004 16 0 0.0 0.0 0.00 0.03 0.00 72 1008.3
20260503184005 16 312 0.0 3.2 0.00 0.03 0.00 71 1008.3
20260503183004 17 312 1.6 6.4 0.00 0.03 0.00 71 1008.1
20260503182005 17 311 1.6 4.8 0.00 0.03 0.00 70 1008.0
20260503181004 17 318 3.2 8.0 0.00 0.03 0.00 69 1007.9
20260503180004 17 287 0.0 6.4 0.00 0.03 0.00 68 1007.9
20260503174004 17 280 1.6 3.2 0.00 0.03 0.00 68 1007.8
20260503171004 17 305 1.6 6.4 0.00 0.05 0.00 67 1007.9
20260503151003 18 251 3.2 9.7 0.00 0.10 0.00 69 1008.1